Location: Kitchener-Waterloo
(43.4500°N, 80.5000°W)
Time: 01:00:40
(UTC-04:00)

ISS - All Passes

Search period start: 30 July 2014 00:00
Search period end: 09 August 2014 00:00
Orbit: 411 x 419 km, 51.6° (Epoch: 29 July)

Date Brightness Start Highest point End Pass type
(mag) Time Alt. Az. Time Alt. Az. Time Alt. Az.
30 Jul - 01:18:10 10° W 01:21:20 38° NNW 01:24:31 10° NE visible
30 Jul - 02:56:08 10° NW 02:58:42 20° N 03:01:16 10° NE visible
30 Jul - 04:33:13 10° NW 04:36:10 28° NNE 04:39:08 10° ENE visible
30 Jul - 06:09:46 10° WNW 06:13:07 68° SW 06:16:28 10° SE daylight
30 Jul - 22:53:23 10° S 22:55:57 21° SE 22:58:32 10° E night (unlit)
31 Jul - 00:29:08 10° WSW 00:32:26 56° NNW 00:35:44 10° NE visible
31 Jul - 02:07:00 10° WNW 02:09:39 21° N 02:12:20 10° NE visible
31 Jul - 03:44:24 10° NW 03:47:10 23° NNE 03:49:57 10° ENE visible
31 Jul - 05:20:56 10° NW 05:24:18 74° NNE 05:27:40 10° ESE visible
31 Jul - 06:58:35 10° W 07:00:39 16° SW 07:02:43 10° S daylight
31 Jul - 22:05:53 10° SSE 22:07:19 12° SE 22:08:46 10° ESE night (unlit)
31 Jul - 23:40:14 10° WSW 23:43:34 89° NNW 23:46:56 10° ENE night (unlit)
01 Aug - 01:17:48 10° WNW 01:20:38 25° NNW 01:23:28 10° NE visible
01 Aug - 02:55:31 10° NW 02:58:08 21° N 03:00:45 10° ENE visible
01 Aug - 04:32:09 10° NW 04:35:26 48° NNE 04:38:42 10° ESE visible
01 Aug - 06:09:09 10° WNW 06:12:00 26° SW 06:14:50 10° SSE daylight
01 Aug - 22:51:31 10° SW 22:54:46 54° SE 22:58:03 10° ENE visible
02 Aug - 00:28:37 10° W 00:31:38 30° NNW 00:34:40 10° NE visible
02 Aug - 02:06:32 10° NW 02:09:05 20° N 02:11:38 10° NE visible
02 Aug - 03:43:22 10° NW 03:46:29 34° NNE 03:49:36 10° E visible
02 Aug - 05:20:03 10° WNW 05:23:16 43° SW 05:26:29 10° SSE visible
02 Aug - 22:03:02 10° SSW 22:06:01 31° SE 22:09:01 10° ENE visible
02 Aug - 23:39:29 10° W 23:42:40 41° NNW 23:45:52 10° NE visible
03 Aug - 01:17:26 10° NW 01:20:00 20° N 01:22:35 10° NE visible
03 Aug - 02:54:35 10° NW 02:57:30 27° NNE 03:00:24 10° ENE visible
03 Aug - 04:31:07 10° WNW 04:34:29 75° SW 04:37:50 10° SE visible
03 Aug - 21:14:54 10° S 21:17:19 19° SE 21:19:44 10° E visible
03 Aug - 22:50:27 10° WSW 22:53:45 61° NNW 22:57:04 10° NE visible
04 Aug - 00:28:16 10° WNW 00:30:57 22° N 00:33:38 10° NE visible
04 Aug - 02:05:44 10° NW 02:08:27 22° N 02:11:11 10° ENE visible
04 Aug - 03:42:16 10° NW 03:45:37 67° NNE 03:48:58 10° ESE visible
04 Aug - 05:19:44 10° W 05:22:01 17° SW 05:24:17 10° S visible
04 Aug - 20:27:43 10° SSE 20:28:40 11° SE 20:29:38 10° ESE daylight
04 Aug - 22:01:33 10° SW 22:04:52 83° SE 22:08:13 10° ENE visible
04 Aug - 23:39:02 10° WNW 23:41:54 25° NNW 23:44:46 10° NE visible
05 Aug - 01:16:48 10° NW 01:19:23 20° N 01:21:59 10° NE visible
05 Aug - 02:53:27 10° NW 02:56:42 44° NNE 02:59:56 10° E night (unlit)
05 Aug - 04:30:22 10° WNW 04:33:19 28° SW 04:36:15 10° SSE visible
05 Aug - 21:12:50 10° SW 21:16:03 48° SE 21:19:17 10° ENE visible
05 Aug - 22:49:50 10° W 22:52:52 32° NNW 22:55:56 10° NE visible
06 Aug - 00:27:46 10° NW 00:30:18 20° N 00:32:50 10° NE visible
06 Aug - 02:04:39 10° NW 02:07:43 32° NNE 02:10:47 10° E visible
06 Aug - 03:41:17 10° WNW 03:44:33 49° SW 03:47:48 10° SE night (unlit)
06 Aug - 20:24:23 10° SSW 20:27:17 28° SE 20:30:12 10° ENE daylight
06 Aug - 22:00:41 10° W 22:03:53 44° NNW 22:07:07 10° NE visible
06 Aug - 23:38:37 10° NW 23:41:12 20° N 23:43:47 10° NE visible
07 Aug - 01:15:49 10° NW 01:18:42 25° NNE 01:21:34 10° ENE visible
07 Aug - 02:52:21 10° WNW 02:55:43 83° SSW 02:59:04 10° SE night (unlit)
07 Aug - 04:30:52 10° WSW 04:31:55 11° SW 04:32:58 10° SSW night (unlit)
07 Aug - 19:36:21 10° S 19:38:34 17° SE 19:40:48 10° E daylight
07 Aug - 21:11:39 10° WSW 21:14:57 67° NNW 21:18:17 10° NE visible
07 Aug - 22:49:24 10° WNW 22:52:07 22° N 22:54:50 10° NE visible
08 Aug - 00:26:56 10° NW 00:29:37 22° N 00:32:19 10° ENE visible
08 Aug - 02:03:29 10° NW 02:06:49 61° NNE 02:10:08 10° ESE night (unlit)
08 Aug - 03:40:48 10° W 03:43:15 19° SW 03:45:42 10° S night (unlit)
08 Aug - 20:22:45 10° SW 20:26:04 75° SE 20:29:24 10° ENE daylight
08 Aug - 22:00:09 10° WNW 22:03:02 26° NNW 22:05:56 10° NE visible
08 Aug - 23:37:57 10° NW 23:40:31 20° N 23:43:05 10° NE visible
